DW2150 Weather Reports


Display with metric or nautical units.
time (UTC)temp
F
wind
direction
speed
MPH
gust
MPH
rain 1hr
in
rain 24hr
in
rain mn
in
humidity
%
barometer
mb
20260508172011 69 29 2.0 5.0 0.00 0.00 0.00 94 1012.2
20260508171508 68 15 1.0 6.0 0.00 0.00 0.00 94 1012.2
20260508170935 68 20 1.0 6.0 0.00 0.00 0.00 94 1012.5
20260508170432 68 73 2.0 6.0 0.00 0.00 0.00 93 1012.5
20260508165839 68 36 2.0 6.0 0.00 0.00 0.00 93 1012.9
20260508165336 68 29 2.0 7.0 0.00 0.00 0.00 93 1012.9
20260508164833 68 46 1.0 7.0 0.00 0.00 0.00 93 1012.9
20260508164329 68 42 2.0 7.0 0.00 0.00 0.00 93 1012.9
20260508163754 68 43 2.0 7.0 0.00 0.00 0.00 93 1012.9
20260508163251 68 36 2.0 7.0 0.00 0.00 0.00 93 1012.9
20260508162748 68 36 2.0 7.0 0.00 0.00 0.00 93 1013.2
20260508162245 68 62 3.0 7.0 0.00 0.00 0.00 93 1013.2
20260508161741 68 57 2.0 5.0 0.00 0.00 0.00 93 1013.2
20260508161239 69 85 1.0 8.0 0.00 0.00 0.00 93 1013.5
20260508160735 69 6 2.0 8.0 0.00 0.00 0.00 93 1013.2
20260508160232 68 28 2.0 8.0 0.00 0.00 0.00 93 1013.2
20260508155626 68 62 3.0 8.0 0.00 0.00 0.00 93 1013.5
20260508155123 68 72 3.0 7.0 0.00 0.00 0.00 93 1013.5
20260508154549 68 48 2.0 6.0 0.00 0.00 0.00 93 1013.5
20260508154046 68 63 0.0 5.0 0.00 0.00 0.00 94 1013.5
20260508153543 68 8 3.0 7.0 0.00 0.00 0.00 94 1013.5
20260508153039 68 67 3.0 7.0 0.00 0.00 0.00 93 1013.5
20260508152449 68 9 2.0 8.0 0.00 0.00 0.00 93 1013.5
20260508151946 68 55 3.0 8.0 0.00 0.00 0.00 93 1013.2
20260508151444 68 44 2.0 8.0 0.00 0.00 0.00 94 1013.2
20260508150940 68 25 3.0 8.0 0.00 0.00 0.00 93 1013.2
20260508150438 68 43 3.0 6.0 0.00 0.00 0.00 94 1013.2
20260508145913 68 40 3.0 8.0 0.00 0.00 0.00 94 1013.2
20260508145410 68 44 2.0 8.0 0.00 0.00 0.00 93 1013.5
20260508144907 68 21 2.0 8.0 0.00 0.00 0.00 93 1013.2
20260508144404 68 43 2.0 4.0 0.00 0.00 0.00 93 1013.2
20260508143902 68 54 1.0 3.0 0.00 0.00 0.00 93 1013.5
20260508143359 68 38 2.0 3.0 0.00 0.00 0.00 93 1013.5
20260508142856 68 41 1.0 5.0 0.00 0.00 0.00 93 1013.5
20260508142337 68 49 1.0 5.0 0.00 0.00 0.00 93 1013.9
20260508141835 68 5 1.0 5.0 0.00 0.00 0.00 93 1013.5
20260508141313 68 34 2.0 5.0 0.00 0.00 0.00 93 1013.2
20260508140751 68 49 1.0 4.0 0.00 0.00 0.00 93 1013.2
20260508140229 68 23 1.0 4.0 0.00 0.00 0.00 93 1013.2
20260508135726 68 14 1.0 4.0 0.00 0.00 0.00 93 1013.2
20260508135223 68 72 2.0 4.0 0.00 0.00 0.00 93 1013.2
20260508134720 68 34 0.0 5.0 0.00 0.00 0.00 93 1013.2
20260508134217 68 62 0.0 6.0 0.00 0.00 0.00 93 1013.2
20260508133714 68 30 2.0 6.0 0.00 0.00 0.00 93 1013.2
20260508133211 68 30 1.0 2.0 0.00 0.00 0.00 93 1013.2
20260508132708 68 35 0.0 4.0 0.00 0.00 0.00 93 1013.2
20260508132103 68 35 0.0 5.0 0.00 0.00 0.00 93 1013.5
20260508131528 68 57 0.0 7.0 0.00 0.00 0.00 93 1013.5
20260508130954 68 18 2.0 7.0 0.00 0.00 0.00 93 1013.2
20260508130432 68 27 1.0 7.0 0.00 0.00 0.00 93 1013.2
20260508125930 68 43 3.0 7.0 0.00 0.00 0.00 93 1012.9
20260508125355 68 64 2.0 7.0 0.00 0.00 0.00 93 1013.2
20260508124851 68 31 1.0 6.0 0.00 0.00 0.00 93 1013.2
20260508124348 69 58 2.0 6.0 0.00 0.00 0.00 93 1013.2
20260508123813 69 70 1.0 6.0 0.00 0.00 0.00 93 1013.5
20260508123312 69 78 1.0 4.0 0.00 0.00 0.00 93 1013.2
20260508122807 69 54 0.0 4.0 0.00 0.00 0.00 93 1013.2
20260508122307 69 67 0.0 4.0 0.00 0.00 0.00 93 1013.2
20260508121731 69 91 1.0 5.0 0.00 0.00 0.00 93 1013.2
20260508121226 69 51 1.0 6.0 0.00 0.00 0.00 93 1013.2
20260508120652 69 85 2.0 6.0 0.00 0.00 0.00 93 1012.9
20260508120118 69 67 2.0 6.0 0.00 0.00 0.00 93 1012.9
20260508115614 69 21 2.0 6.0 0.00 0.00 0.00 93 1012.9
20260508115111 69 35 2.0 5.0 0.00 0.00 0.00 93 1012.5
20260508114608 69 43 2.0 5.0 0.00 0.00 0.00 93 1012.9
20260508114105 69 30 2.0 5.0 0.00 0.00 0.00 93 1013.2
20260508113602 69 49 3.0 5.0 0.00 0.00 0.00 93 1012.9
20260508113059 69 41 2.0 5.0 0.00 0.00 0.00 93 1012.9
20260508112556 69 39 2.0 4.0 0.00 0.00 0.00 93 1013.2
20260508112053 69 37 2.0 4.0 0.00 0.00 0.00 93 1013.2
20260508111519 70 39 1.0 5.0 0.00 0.00 0.00 93 1013.2
20260508110944 70 42 1.0 5.0 0.00 0.00 0.00 93 1013.2
20260508110440 70 37 2.0 5.0 0.00 0.00 0.00 93 1013.2
20260508105906 70 6 1.0 4.0 0.00 0.00 0.00 93 1013.2
20260508105403 70 22 2.0 4.0 0.00 0.00 0.00 93 1012.5
20260508104900 69 80 1.0 4.0 0.00 0.00 0.00 93 1012.2
20260508104326 69 39 1.0 5.0 0.00 0.00 0.00 93 1012.2
20260508103824 69 61 1.0 7.0 0.00 0.00 0.00 93 1012.2
20260508103321 69 56 2.0 7.0 0.00 0.00 0.00 93 1012.5
20260508102818 70 50 2.0 8.0 0.00 0.00 0.00 93 1012.5
20260508102314 70 92 1.0 8.0 0.00 0.00 0.00 93 1012.5
20260508101811 70 35 2.0 6.0 0.00 0.00 0.00 93 1012.9
20260508101308 70 59 2.0 6.0 0.00 0.00 0.00 93 1012.9
20260508100805 70 44 2.0 6.0 0.00 0.00 0.00 93 1012.5
20260508100302 71 63 2.0 4.0 0.00 0.00 0.00 93 1012.5
20260508095759 71 53 2.0 6.0 0.00 0.00 0.00 93 1012.9
20260508095255 71 32 1.0 7.0 0.00 0.00 0.00 92 1012.9
20260508094751 72 29 1.0 7.0 0.00 0.00 0.00 92 1012.9
20260508094248 72 28 1.0 5.0 0.00 0.00 0.00 92 1012.9
20260508093643 73 64 2.0 5.0 0.00 0.00 0.00 92 1012.9
20260508093138 73 46 2.0 3.0 0.00 0.00 0.00 92 1012.9
20260508092635 73 50 1.0 3.0 0.00 0.00 0.00 92 1012.9
20260508092131 73 97 1.0 3.0 0.00 0.00 0.00 92 1012.9
20260508091628 73 32 1.0 5.0 0.00 0.00 0.00 92 1012.9
20260508091125 73 46 1.0 5.0 0.00 0.00 0.00 92 1012.9
20260508090521 73 42 0.0 5.0 0.00 0.00 0.00 91 1012.9
20260508085850 73 53 2.0 4.0 0.00 0.00 0.00 91 1012.9
20260508085347 73 44 1.0 3.0 0.00 0.00 0.00 91 1012.5
20260508084844 73 31 1.0 3.0 0.00 0.00 0.00 91 1012.9
20260508084340 73 31 1.0 3.0 0.00 0.00 0.00 91 1012.9
20260508083837 73 31 1.0 3.0 0.00 0.00 0.00 91 1012.9
20260508083334 73 32 1.0 3.0 0.00 0.00 0.00 90 1012.9
20260508082832 73 48 1.0 3.0 0.00 0.00 0.00 91 1012.9
20260508082329 73 66 2.0 3.0 0.00 0.00 0.00 90 1012.9
20260508081826 74 23 0.0 3.0 0.00 0.00 0.00 90 1012.9
20260508081252 74 24 0.0 4.0 0.00 0.00 0.00 90 1013.2
20260508080748 74 24 1.0 4.0 0.00 0.00 0.00 90 1012.9
20260508080226 74 16 1.0 6.0 0.00 0.00 0.00 89 1012.9
20260508075652 74 39 1.0 6.0 0.00 0.00 0.00 89 1012.5
20260508075118 74 52 1.0 6.0 0.00 0.00 0.00 89 1012.5
20260508074514 74 39 1.0 5.0 0.00 0.00 0.00 89 1012.9
20260508074010 74 12 1.0 5.0 0.00 0.00 0.00 89 1012.9
20260508073507 74 30 2.0 5.0 0.00 0.00 0.00 89 1012.9
20260508073004 74 24 3.0 5.0 0.00 0.00 0.00 89 1012.9
20260508072431 74 58 2.0 4.0 0.00 0.00 0.00 89 1013.2
20260508071927 74 24 1.0 4.0 0.00 0.00 0.00 89 1013.2
20260508071424 74 31 0.0 6.0 0.00 0.00 0.00 89 1013.2
20260508070921 74 31 0.0 6.0 0.00 0.00 0.00 89 1013.2
20260508070419 74 46 2.0 6.0 0.00 0.00 0.00 89 1013.2
20260508065916 74 39 1.0 8.0 0.00 0.00 0.00 89 1012.9
20260508065413 74 25 1.0 8.0 0.00 0.00 0.00 89 1013.2
20260508064839 74 39 1.0 8.0 0.00 0.00 0.00 89 1012.9
20260508064304 74 35 2.0 8.0 0.00 0.00 0.00 89 1012.5
20260508063801 74 71 0.0 8.0 0.00 0.00 0.00 89 1012.9
20260508063258 74 47 2.0 4.0 0.00 0.00 0.00 89 1013.2
20260508062755 74 32 1.0 2.0 0.00 0.00 0.00 89 1013.2
20260508062252 74 32 1.0 2.0 0.00 0.00 0.00 89 1013.5
20260508061750 74 32 1.0 3.0 0.00 0.00 0.00 89 1013.5
20260508061246 74 32 1.0 4.0 0.00 0.00 0.00 89 1013.5
20260508060724 74 32 0.0 4.0 0.00 0.00 0.00 88 1013.5
20260508060221 74 32 1.0 4.0 0.00 0.00 0.00 88 1013.5
20260508055718 74 56 2.0 6.0 0.00 0.00 0.00 88 1013.5
20260508055215 74 63 1.0 6.0 0.00 0.00 0.00 88 1013.5
20260508054710 74 58 1.0 7.0 0.00 0.00 0.00 88 1013.2
20260508054207 74 88 2.0 7.0 0.00 0.00 0.00 88 1013.2
20260508053704 74 3 2.0 7.0 0.00 0.00 0.00 88 1012.9
20260508053201 74 64 2.0 7.0 0.00 0.00 0.00 87 1012.9
20260508052658 74 61 2.0 6.0 0.00 0.00 0.00 87 1012.9
20260508052155 74 68 2.0 6.0 0.00 0.00 0.00 87 1012.9
20260508051652 74 16 2.0 5.0 0.00 0.00 0.00 87 1012.9
20260508051148 74 10 1.0 6.0 0.00 0.00 0.00 87 1012.9
20260508050645 74 51 2.0 6.0 0.00 0.00 0.00 87 1012.9
20260508050142 74 54 2.0 6.0 0.00 0.00 0.00 87 1012.9
20260508045639 74 90 2.0 6.0 0.00 0.00 0.00 86 1012.9
20260508045136 74 32 2.0 6.0 0.00 0.00 0.00 86 1012.9
20260508044633 74 16 2.0 6.0 0.00 0.00 0.00 87 1012.9
20260508044130 74 32 2.0 6.0 0.00 0.00 0.00 87 1012.9
20260508043555 74 41 1.0 6.0 0.00 0.00 0.00 87 1013.2
20260508043033 75 50 3.0 6.0 0.00 0.00 0.00 87 1013.2
20260508042459 75 70 2.0 5.0 0.00 0.00 0.00 87 1013.5
20260508041956 75 61 1.0 5.0 0.00 0.00 0.00 86 1013.9
20260508041434 75 46 2.0 5.0 0.00 0.00 0.00 86 1013.9
20260508040808 75 55 2.0 5.0 0.00 0.00 0.00 86 1014.2
20260508040249 75 42 1.0 6.0 0.00 0.00 0.00 86 1014.2
20260508035728 75 83 2.0 7.0 0.00 0.00 0.00 85 1014.6
20260508035223 75 51 2.0 7.0 0.00 0.00 0.00 85 1014.2
20260508034720 75 69 2.0 7.0 0.00 0.00 0.00 85 1014.6
20260508034217 75 37 2.0 7.0 0.00 0.00 0.00 85 1014.6
20260508033643 75 54 2.0 6.0 0.00 0.00 0.00 85 1014.2
20260508033140 75 111 1.0 7.0 0.00 0.00 0.00 86 1014.2
20260508032637 75 35 2.0 7.0 0.00 0.00 0.00 85 1014.2
20260508032134 75 58 3.0 7.0 0.00 0.00 0.00 85 1014.2
20260508031631 75 81 2.0 5.0 0.00 0.00 0.00 85 1014.2
20260508031128 75 29 1.0 5.0 0.00 0.00 0.00 85 1013.9
20260508030625 75 47 1.0 5.0 0.00 0.00 0.00 85 1013.9
20260508030122 75 88 2.0 5.0 0.00 0.00 0.00 84 1013.9
20260508025559 75 50 2.0 5.0 0.00 0.00 0.00 84 1013.9
20260508025053 75 62 2.0 5.0 0.00 0.00 0.00 84 1013.9
20260508024551 75 59 1.0 5.0 0.00 0.00 0.00 83 1013.9
20260508024047 76 66 2.0 5.0 0.00 0.00 0.00 83 1013.9
20260508023545 76 63 2.0 4.0 0.00 0.00 0.00 83 1013.9
20260508023041 76 63 1.0 4.0 0.00 0.00 0.00 83 1013.9
20260508022538 76 85 2.0 6.0 0.00 0.00 0.00 82 1013.9
20260508022004 76 65 2.0 6.0 0.00 0.00 0.00 82 1014.2
20260508021500 76 30 1.0 6.0 0.00 0.00 0.00 82 1013.9
20260508020957 76 30 2.0 7.0 0.00 0.00 0.00 82 1013.9
20260508020453 76 44 2.0 7.0 0.00 0.00 0.00 82 1013.5
20260508015951 76 46 2.0 7.0 0.00 0.00 0.00 82 1013.9
20260508015448 76 34 2.0 7.0 0.00 0.00 0.00 82 1013.9
20260508014945 76 29 2.0 7.0 0.00 0.00 0.00 82 1013.9
20260508014442 76 53 2.0 7.0 0.00 0.00 0.00 82 1013.9
20260508013837 76 46 3.0 7.0 0.00 0.00 0.00 82 1013.9
20260508013334 76 29 3.0 7.0 0.00 0.00 0.00 82 1013.9
20260508012830 76 17 2.0 7.0 0.00 0.00 0.00 82 1013.9
20260508012221 76 24 2.0 7.0 0.00 0.00 0.00 82 1013.5
20260508011718 76 19 3.0 8.0 0.00 0.00 0.00 82 1013.5
20260508011144 77 51 2.0 8.0 0.00 0.00 0.00 82 1013.5
20260508010641 77 44 2.0 8.0 0.00 0.00 0.00 82 1013.5
20260508010138 77 51 4.0 8.0 0.00 0.00 0.00 82 1013.5
20260508005635 77 49 3.0 8.0 0.00 0.00 0.00 82 1013.5
20260508005132 77 46 3.0 8.0 0.00 0.00 0.00 82 1013.5
20260508004628 77 40 2.0 8.0 0.00 0.00 0.00 82 1013.5
20260508004125 77 27 2.0 8.0 0.00 0.00 0.00 82 1013.5
20260508003622 77 34 2.0 8.0 0.00 0.00 0.00 82 1013.5
20260508003119 77 71 3.0 8.0 0.00 0.00 0.00 82 1013.5
20260508002616 77 21 3.0 8.0 0.00 0.00 0.00 82 1013.5
20260508002113 77 14 2.0 7.0 0.00 0.00 0.00 82 1013.5
20260508001610 77 38 3.0 8.0 0.00 0.00 0.00 81 1013.5
20260508001011 77 63 3.0 8.0 0.00 0.00 0.00 81 1013.5
20260508000509 77 66 2.0 7.0 0.00 0.00 0.00 81 1013.5
20260508000005 77 14 3.0 7.0 0.00 0.00 0.00 81 1013.5
20260507235502 78 37 2.0 7.0 0.00 0.00 0.00 81 1013.5
20260507234959 78 64 1.0 7.0 0.00 0.00 0.00 81 1013.2
20260507234425 78 67 3.0 9.0 0.00 0.00 0.00 81 1013.2
20260507233922 78 38 2.0 9.0 0.00 0.00 0.00 81 1013.2
20260507233415 78 54 2.0 9.0 0.00 0.00 0.00 81 1013.5
20260507232911 78 55 4.0 8.0 0.00 0.00 0.00 80 1013.2
20260507232407 78 46 2.0 7.0 0.00 0.00 0.00 81 1013.2
20260507231904 78 78 2.0 7.0 0.00 0.00 0.00 81 1013.2
20260507231401 78 69 2.0 6.0 0.00 0.00 0.00 81 1013.2
20260507230858 79 11 1.0 7.0 0.00 0.00 0.00 81 1013.2
20260507230337 79 32 2.0 6.0 0.00 0.00 0.00 80 1013.5
20260507225834 79 23 2.0 6.0 0.00 0.00 0.00 81 1013.5
20260507225300 79 36 2.0 6.0 0.00 0.00 0.00 81 1013.2
20260507224757 79 22 1.0 7.0 0.00 0.00 0.00 81 1013.5
20260507224254 79 41 2.0 7.0 0.00 0.00 0.00 80 1013.5
20260507223751 79 67 2.0 7.0 0.00 0.00 0.00 80 1013.5
20260507223248 79 66 3.0 7.0 0.00 0.00 0.00 80 1013.2
20260507222745 80 14 2.0 6.0 0.00 0.00 0.00 81 1013.2
20260507222242 79 37 2.0 7.0 0.00 0.00 0.00 81 1013.2
20260507221708 79 37 2.0 7.0 0.00 0.00 0.00 81 1013.2
20260507221205 79 49 2.0 7.0 0.00 0.00 0.00 80 1013.5
20260507220702 79 61 3.0 7.0 0.00 0.00 0.00 79 1013.5
20260507220128 79 71 2.0 7.0 0.00 0.00 0.00 81 1013.5
20260507215625 79 51 2.0 7.0 0.00 0.00 0.00 79 1013.2
20260507215122 79 33 3.0 7.0 0.00 0.00 0.00 79 1013.2
20260507214618 79 350 2.0 6.0 0.00 0.00 0.00 80 1013.2
20260507214115 78 32 1.0 6.0 0.00 0.00 0.00 81 1013.2
20260507213612 78 24 2.0 6.0 0.00 0.00 0.00 81 1013.2
20260507213038 78 87 2.0 6.0 0.00 0.00 0.00 80 1013.5
20260507212535 79 59 3.0 6.0 0.00 0.00 0.00 79 1013.5
20260507212014 79 54 2.0 10.0 0.00 0.00 0.00 79 1013.5
20260507211409 79 45 2.0 10.0 0.00 0.00 0.00 79 1013.5
20260507210848 79 40 3.0 10.0 0.00 0.00 0.00 79 1013.5
20260507210345 79 40 2.0 11.0 0.00 0.00 0.00 79 1013.5
20260507205751 79 52 3.0 11.0 0.00 0.00 0.00 78 1013.9
20260507205146 78 45 4.0 11.0 0.00 0.00 0.00 78 1013.9
20260507204642 78 46 3.0 8.0 0.00 0.00 0.00 78 1014.2
20260507204139 78 39 3.0 8.0 0.00 0.00 0.00 78 1014.2
20260507203636 78 36 3.0 8.0 0.00 0.00 0.00 79 1014.2
20260507203134 78 18 3.0 8.0 0.00 0.00 0.00 79 1014.2
20260507202631 77 51 2.0 8.0 0.00 0.00 0.00 80 1014.2
20260507202127 77 66 3.0 8.0 0.00 0.00 0.00 79 1014.2
20260507201625 77 52 3.0 8.0 0.00 0.00 0.00 80 1014.2
20260507201122 77 46 2.0 8.0 0.00 0.00 0.00 79 1014.6
20260507200600 77 29 2.0 7.0 0.00 0.00 0.00 79 1014.6
20260507200018 77 59 2.0 7.0 0.00 0.00 0.00 79 1014.6
20260507195516 77 31 1.0 7.0 0.00 0.00 0.00 81 1014.6
20260507195012 76 74 2.0 7.0 0.00 0.00 0.00 81 1014.6
20260507194510 76 49 3.0 5.0 0.00 0.00 0.00 80 1014.6
20260507194007 76 299 2.0 5.0 0.00 0.00 0.00 80 1014.6
20260507193504 76 43 3.0 5.0 0.00 0.00 0.00 81 1014.9
20260507192946 76 120 1.0 5.0 0.00 0.00 0.00 81 1014.9
20260507192443 75 299 2.0 5.0 0.00 0.00 0.00 82 1014.9
20260507191940 75 30 2.0 7.0 0.00 0.00 0.00 81 1014.9
20260507191437 75 42 2.0 7.0 0.00 0.00 0.00 82 1014.9
20260507190934 74 278 2.0 7.0 0.00 0.00 0.00 83 1014.9
20260507190431 73 59 3.0 7.0 0.00 0.00 0.00 83 1014.9
20260507185928 73 35 2.0 5.0 0.00 0.00 0.00 84 1015.2
20260507185426 73 326 0.0 6.0 0.00 0.00 0.00 83 1015.2
20260507184923 73 272 2.0 6.0 0.00 0.00 0.00 83 1015.2
20260507184420 73 71 2.0 6.0 0.00 0.00 0.00 83 1015.2
20260507183846 73 66 3.0 6.0 0.00 0.00 0.00 82 1015.2
20260507183344 73 68 2.0 6.0 0.00 0.00 0.00 81 1015.2
20260507182840 73 20 2.0 4.0 0.00 0.00 0.00 82 1015.2
20260507182337 73 56 1.0 5.0 0.00 0.00 0.00 82 1015.6
20260507181835 73 325 1.0 7.0 0.00 0.00 0.00 82 1015.6
20260507181301 73 69 3.0 7.0 0.00 0.00 0.00 82 1015.6
20260507180742 73 257 2.0 7.0 0.00 0.00 0.00 83 1015.6
20260507180137 73 46 2.0 11.0 0.00 0.00 0.00 83 1015.6
20260507175634 71 52 2.0 11.0 0.00 0.00 0.00 86 1015.6
20260507175131 71 272 2.0 11.0 0.00 0.00 0.00 84 1015.6
20260507174628 71 64 3.0 10.0 0.00 0.00 0.00 85 1015.6
20260507174023 71 54 3.0 7.0 0.00 0.00 0.00 85 1015.9
20260507173501 70 272 2.0 7.0 0.00 0.00 0.00 86 1015.9
20260507172958 69 43 2.0 7.0 0.00 0.00 0.00 86 1015.9
20260507172424 69 35 3.0 7.0 0.00 0.00 0.00 85 1015.9